Weather History for Imperial, NE

Change the Weather History Date:

Thursday, January 6, 2011

  Actual Average Record
Temperature  
Mean Temperature 37 °F 28 °F  
Max Temperature 49 °F 41 °F 65 °F (1965)
Min Temperature 25 °F 15 °F -28 °F (1912)
Degree Days  
Heating Degree Days 28 37  
Month to date heating degree days 261 222  
Cooling Degree Days 0 0  
Month to date cooling degree days 0 0  
Year to date cooling degree days 0 0  
Moisture  
Dew Point 24 °F    
Average Humidity 57    
Maximum Humidity 69    
Minimum Humidity 45    
Precipitation  
Precipitation 0.00 in 0.00 in 0.22 in (1967)
Sea Level Pressure  
Sea Level Pressure 30.00 in    
Wind  
Wind Speed 13 mph (WNW)    
Max Wind Speed 21 mph    
Max Gust Speed 26 mph    
Visibility 10 miles    
Events      
T = Trace of Precipitation, MM = Missing Value Source: NWS Daily Summary

Daily Weather History Graph

Daily Weather History Graph

Search for Another Location

Airport:

Trip Planner

Search our weather history database for the weather conditions in past years. The results will help you decide how hot, cold, wet, or windy it might be!

Date:

Astronomy

Jan. 06, 2011 Rise Set
Actual Time 7:10 AM MST 4:34 PM MST
Civil Twilight 6:39 AM MST 5:05 PM MST
Nautical Twilight 6:05 AM MST 5:39 PM MST
Astronomical Twilight 5:32 AM MST 6:12 PM MST
Moon 8:26 AM MST (1/6) 7:13 PM MST (1/6)
Length of Visible Light 10h 25m
Length of Day
9h 24m
Waxing Crescent, 6% of the Moon is Illuminated
Jan 6
Waxing Crescent
Jan 12
First Quarter
Jan 19
Full
Jan 26
Last Quarter
Feb 2
New

Hourly Weather History & Observations

Time (MST) Temp. Windchill Dew Point Humidity Pressure Visibility Wind Dir Wind Speed Gust Speed Precip Events Conditions
12:53 AM 28.9 °F 18.6 °F 19.0 °F 67% 30.09 in 10.0 mi West 12.7 mph - N/A   Clear
1:53 AM 28.0 °F 18.1 °F 18.0 °F 66% 30.09 in 10.0 mi WNW 11.5 mph - N/A   Clear
2:53 AM 28.0 °F 17.0 °F 18.0 °F 66% 30.08 in 10.0 mi WNW 13.8 mph - N/A   Clear
3:53 AM 26.1 °F 16.2 °F 17.1 °F 69% 30.06 in 10.0 mi WNW 10.4 mph - N/A   Clear
4:53 AM 26.1 °F 15.6 °F 16.0 °F 66% 30.06 in 10.0 mi West 11.5 mph - N/A   Clear
5:53 AM 27.0 °F 16.1 °F 17.1 °F 66% 30.06 in 10.0 mi West 12.7 mph - N/A   Clear
6:53 AM 28.9 °F 17.7 °F 17.1 °F 61% 30.06 in 10.0 mi West 15.0 mph - N/A   Clear
7:53 AM 30.0 °F 20.0 °F 18.0 °F 61% 30.06 in 10.0 mi West 12.7 mph - N/A   Clear
8:53 AM 34.0 °F 25.0 °F 19.9 °F 56% 30.06 in 10.0 mi WNW 12.7 mph - N/A   Clear
9:53 AM 37.9 °F 28.5 °F 24.1 °F 57% 30.07 in 10.0 mi WNW 17.3 mph 23.0 mph N/A   Clear
10:53 AM 45.0 °F 37.4 °F 25.0 °F 46% 30.04 in 10.0 mi WNW 18.4 mph 25.3 mph N/A   Clear
11:53 AM 45.0 °F 38.9 °F 27.0 °F 49% 30.01 in 10.0 mi WNW 12.7 mph 19.6 mph N/A   Clear
12:53 PM 46.9 °F - 27.0 °F 46% 29.98 in 10.0 mi WNW 12.7 mph - N/A   Clear
1:53 PM 48.0 °F - 28.9 °F 48% 29.98 in 10.0 mi West 11.5 mph - N/A   Clear
2:53 PM 46.9 °F - 30.0 °F 52% 29.97 in 10.0 mi West 9.2 mph - N/A   Clear
3:53 PM 45.0 °F 40.1 °F 30.0 °F 56% 29.96 in 10.0 mi West 9.2 mph - N/A   Clear
4:53 PM 43.0 °F 36.8 °F 28.9 °F 58% 29.95 in 10.0 mi West 11.5 mph - N/A   Clear
5:53 PM 44.1 °F 37.4 °F 28.9 °F 55% 29.93 in 10.0 mi WNW 13.8 mph - N/A   Clear
6:53 PM 39.0 °F 32.3 °F 28.9 °F 67% 29.94 in 10.0 mi West 10.4 mph - N/A   Clear
7:53 PM 44.1 °F 36.5 °F 28.9 °F 55% 29.91 in 10.0 mi WNW 17.3 mph 24.2 mph N/A   Clear
8:53 PM 39.0 °F 31.0 °F 28.9 °F 67% 29.92 in 10.0 mi West 13.8 mph - N/A   Clear
9:53 PM 41.0 °F 33.1 °F 28.9 °F 62% 29.91 in 10.0 mi West 15.0 mph - N/A   Clear
10:53 PM 39.0 °F 30.3 °F 28.9 °F 67% 29.90 in 10.0 mi WNW 16.1 mph 21.9 mph N/A   Clear
11:53 PM 39.9 °F 31.8 °F 28.0 °F 63% 29.88 in 10.0 mi WNW 15.0 mph - N/A   Partly Cloudy